Home   Weather   Santa Clara   Past weeks

Flag for USA Past Weather in Santa Clara, California, USA — Yesterday and Last 2 Weeks

Now
62 °F

Mostly cloudy.


Feels Like: 62 °F
Forecast: 56 / 64 °F
Wind: 14 mph from Southeast

Location: San Jose International Airport

Current Time: Dec 8, 2016 at 4:23:57 pm

Latest Report: Dec 8, 2016 at 3:53 pm


Visibility: 10 mi

Pressure: 30.13 "Hg

Humidity: 75%

Dew Point: 54 °F

Location of Santa ClaraLocation

Past Weather in Santa Clara — Graph

°F

Santa Clara Temperature Yesterday

Maximum temperature yesterday: 54 °F (at 2:53 pm)
Minimum temperature yesterday: 38 °F (at 6:53 am)
Average temperature yesterday: 48 °F

High & Low Weather Summary for the Past Weeks

 TemperatureHumidityPressure
High65 °F (Dec 3, 1:53 pm)93% (Nov 28, 7:53 am)30.37 "Hg (Nov 28, 7:53 am)
Low38 °F (Dec 7, 6:53 am)21% (Dec 2, 1:53 pm)29.83 "Hg (Nov 26, 4:53 am)
Average52 °F68%30.11 "Hg
* Reported Nov 23 2:53 pm — Dec 8 2:53 pm, Santa Clara, Weather by CustomWeather, © 2016

Note: Actual official high and low records may vary slightly from our data, if they occured in-between our weather recording intervals... More about our weather records

Advertising

Santa Clara Weather History for the Previous 24 Hours

Scroll right to see more
 ConditionsComfort  
Time TempWeatherWind HumidityBarometerVisibility
2:53 pm
Thu, Dec 8
62 °FMostly cloudy.13 mph75%30.12 "Hg10 mi
1:53 pm62 °FMostly cloudy.10 mph75%30.12 "Hg10 mi
12:53 pm61 °FMostly cloudy.12 mph75%30.12 "Hg10 mi
11:53 am61 °FMostly cloudy.16 mph72%30.12 "Hg10 mi
10:53 am58 °FLight rain. Mostly cloudy.17 mph78%30.13 "Hg10 mi
9:53 am57 °FMostly cloudy.16 mph81%30.13 "Hg10 mi
8:53 am56 °FMostly cloudy.15 mph81%30.11 "Hg10 mi
7:53 am54 °FMostly cloudy.14 mph83%30.09 "Hg6 mi
6:53 am53 °FMostly cloudy.16 mph83%30.08 "Hg6 mi
5:53 am53 °FLight rain. Mostly cloudy.13 mph83%30.06 "Hg3 mi
4:53 am51 °FOvercast.16 mph86%30.03 "Hg10 mi
3:53 am50 °FOvercast.10 mph86%30.05 "Hg10 mi
2:53 am50 °FMostly cloudy.12 mph83%30.06 "Hg10 mi
1:53 am50 °FMostly cloudy.17 mph77%30.05 "Hg10 mi
12:53 am50 °FLight rain. Mostly cloudy.17 mph77%30.05 "Hg10 mi
11:53 pm
Wed, Dec 7
51 °FLight rain. Overcast.16 mph74%30.06 "Hg10 mi
10:53 pm51 °FMostly cloudy.15 mph71%30.08 "Hg10 mi
9:53 pm50 °FLight rain. Mostly cloudy.13 mph74%30.10 "Hg10 mi
8:53 pm52 °FLight rain. Mostly cloudy.8 mph66%30.10 "Hg10 mi
7:53 pm52 °FMostly cloudy.13 mph64%30.09 "Hg10 mi
6:53 pm53 °FMostly cloudy.10 mph56%30.11 "Hg10 mi
5:53 pm54 °FMostly cloudy.9 mph51%30.10 "Hg10 mi
4:53 pm52 °FMostly cloudy.3 mph64%30.11 "Hg10 mi
Weather by CustomWeather, © 2016

See weather overviewHow to use our weather pages